Location: Byszew
(52.1813°N, 19.2693°E)
Time: 01:56:17
(UTC+00:00)

Cosmos 2322 Rocket - Pass Details

Date: 30 June 2021
Orbit: 833 x 850 km, 71.0° (Epoch: 29 July)

Event Time Altitude Azimuth Distance (km) Brightness Sun altitude
Rises 01:34:27 0° 329° (NNW) 3,422 5.7 -6.2°
Reaches altitude 10° 01:36:57 10° 333° (NNW) 2,481 5.0 -6.0°
Maximum altitude 01:42:36 61° 54° (NE) 955 2.9 -5.4°
Drops below altitude 10° 01:48:11 10° 135° (SE) 2,455 4.6 -4.9°
Sets 01:50:38 0° 139° (SE) 3,383 5.3 -4.6°
